Location: *
(42.5628°N, 2.3633°E)
Time: 21:06:59
(UTC+00:00)

Terra - Pass Details

Date: 30 March 2020
Orbit: 701 x 703 km, 98.2° (Epoch: 31 May)

Event Time Altitude Azimuth Distance (km) Brightness Sun altitude
Exits shadow 21:32:24 24° 3° (N) 1,451 3.7 -33.2°
Drops below altitude 10° 21:34:20 10° 355° (N) 2,180 4.9 -33.4°
Sets 21:36:37 0° 352° (N) 3,103 5.9 -33.7°
